Location: Friaudour
(46.0460°N, 1.2873°E)
Time: 03:12:25
(UTC+00:00)

Cosmos 1378 - Pass Details

Date: 14 July 2020
Orbit: 493 x 500 km, 82.5° (Epoch: 06 August)

Event Time Altitude Azimuth Distance (km) Brightness Sun altitude
Rises 03:26:06 0° 342° (NNW) 2,606 7.1 -7.9°
Reaches altitude 10° 03:28:21 10° 333° (NNW) 1,717 6.1 -7.6°
Maximum altitude 03:31:46 34° 268° (W) 851 3.9 -7.2°
Drops below altitude 10° 03:35:09 10° 203° (SSW) 1,703 5.3 -6.8°
Enters shadow 03:36:19 - 197° (SSW) 2,154 5.8 -6.6°
